[[{"header":{"parameterUnit":"m.s-1","parameterCategory":1,"la1":30.2991,"la2":30.254,"lo1":-89.0895,"lo2":-89.0444,"dy":0.0017,"dx":0.0017,"nx":28,"ny":28,"refTime":"2023-08-28T03:00:00:Z","depth":0,"parameterNumber":2,"parameterNumberName":"U-component_of_WINDS"},"data":[0,0,0,0,0,0,0,0,0,0,0,0,0,0,0,0,0,0,0,0,0,0,0,0,0,0,0,0,0,0,0,0,0,0,0,0,0,0,0,0,0,0,0,0,0,0,0,0,0,0,0,0,0,0,0,0,0,0,-1.2296,-1.2294,0,-1.2159,-1.2158,-1.2156,-1.2069,-1.2068,-1.2068,-1.2067,-1.1923,-1.192,-1.1917,0,0,0,0,0,0,0,0,0,0,0,0,0,-1.2476,-1.2473,-1.2296,-1.2294,-1.2292,-1.216,-1.2158,-1.2156,-1.2069,-1.2068,-1.2068,-1.2067,-1.1924,-1.192,-1.1916,0,0,0,0,0,0,0,0,0,0,0,0,0,-1.2375,-1.2472,-1.2296,-1.2233,-1.2226,-1.216,-1.2158,-1.2155,-1.2069,-1.2068,-1.2068,-1.2067,-1.1926,-1.1921,-1.1916,-1.19,0,0,-1.19,-1.1898,0,0,0,0,0,0,0,0,-1.2381,-1.2368,-1.2244,-1.2237,-1.2229,-1.213,-1.2168,-1.207,-1.2069,-1.2129,-1.2067,-1.2066,-1.1992,-1.1982,-1.1958,-1.1893,-1.1887,-1.19,-1.1897,-1.1895,-1.1893,0,0,0,0,0,0,0,-1.2388,-1.2373,-1.2242,-1.2242,-1.2233,-1.221,-1.2195,-1.2149,-1.2066,-1.2123,-1.2117,-1.2102,-1.1988,-1.1963,-1.1954,-1.1885,-1.19,-1.1896,-1.1892,-1.189,-1.18,-1.1801,0,0,0,0,0,0,-1.2405,-1.238,-1.2246,-1.2238,-1.2305,-1.2208,-1.2191,-1.2163,-1.2067,-1.2051,-1.2103,-1.2098,-1.1972,-1.196,-1.1948,-1.1923,-1.1895,-1.189,-1.1887,-1.18,-1.1801,-1.1801,0,0,0,0,0,0,-1.2409,-1.2394,-1.2251,-1.2307,-1.2287,-1.2205,-1.2175,-1.2161,-1.2135,-1.2051,-1.2036,-1.2093,-1.1971,-1.1955,-1.1913,-1.1917,-1.1888,-1.1883,-1.1799,-1.18,-1.1801,-1.1874,0,0,0,0,0,0,-1.2415,-1.2396,-1.239,-1.2307,-1.2284,-1.222,-1.2175,-1.2159,-1.2127,-1.212,-1.2037,-1.2023,-1.1969,-1.1921,-1.1908,-1.191,-1.1879,-1.1798,-1.1799,-1.1801,-1.1871,-1.1877,-1.1883,0,0,0,0,0,-1.2422,-1.2415,-1.2391,-1.2375,-1.2276,-1.222,-1.2207,-1.2147,-1.2128,-1.2121,-1.2067,-1.2025,-1.1919,-1.1917,-1.1902,-1.1902,-1.1798,-1.1799,-1.1801,-1.1868,-1.1876,-1.1883,0,0,0,0,0,0,-1.2499,-1.2403,-1.2375,-1.2342,-1.229,-1.2206,-1.2195,-1.2157,-1.2108,-1.2103,-1.2029,-1.2011,-1.1976,-1.1935,-1.1935,-1.1882,-1.1853,-1.1852,-1.191,-1.1917,-1.1923,-1.1933,-1.1875,0,0,0,0,0,-1.2513,-1.2478,-1.2395,-1.2374,-1.2349,-1.2277,-1.2251,-1.2209,-1.2151,-1.2129,-1.2071,-1.2016,-1.197,-1.1941,-1.1894,-1.1865,-1.1845,-1.1857,-1.1864,-1.1869,-1.1868,-1.1849,-1.1853,-1.1806,-1.1806,-1.1806,0,0,-1.254,-1.2483,-1.2465,-1.2388,-1.2343,-1.2306,-1.2259,-1.2222,-1.2194,-1.2122,-1.2079,-1.2036,-1.1969,-1.1933,-1.1914,-1.1897,-1.1877,-1.1871,-1.1876,-1.1871,-1.1851,-1.1855,-1.1859,-1.1807,-1.1807,-1.1807,0,0,-1.257,-1.2525,-1.2502,-1.2458,-1.2391,-1.2343,-1.2338,-1.2259,-1.2228,-1.2184,-1.2129,-1.2094,-1.2017,-1.1971,-1.1938,-1.1953,-1.1912,-1.194,-1.1971,-1.1953,-1.1956,-1.1959,-1.1964,-1.1966,-1.1939,-1.1939,-1.194,0,-1.2612,-1.2556,-1.2494,-1.2461,-1.2428,-1.2364,-1.2339,-1.2299,-1.222,-1.2199,-1.2182,-1.2083,-1.2034,-1.1986,-1.199,-1.1966,-1.1956,-1.1948,-1.1961,-1.1964,-1.1965,-1.1969,-1.1971,-1.1943,-1.1943,-1.1942,-1.1942,0,-1.261,-1.2573,-1.2562,-1.2489,-1.2455,-1.2426,-1.2359,-1.2332,-1.2293,-1.2247,-1.2202,-1.2141,-1.2081,-1.2066,-1.2027,-1.2013,-1.2005,-1.1976,-1.1945,-1.1975,-1.1976,-1.1977,-1.1948,-1.1947,-1.1946,-1.1945,0,0,-1.2685,-1.2579,-1.2576,-1.2542,-1.2464,-1.2433,-1.2401,-1.2343,-1.2321,-1.2269,-1.2239,-1.2176,-1.2149,-1.2112,-1.2067,-1.2052,-1.2066,-1.2024,-1.2021,-1.2033,-1.2046,-1.2068,-1.207,-1.204,-1.204,-1.204,-1.2051,0,-1.2703,-1.2644,-1.2588,-1.2548,-1.2512,-1.2451,-1.2423,-1.2371,-1.2327,-1.2289,-1.2239,-1.2196,-1.2163,-1.214,-1.2122,-1.2069,-1.2068,-1.2067,-1.201,-1.2009,-1.2028,-1.2071,-1.2094,-1.2108,-1.2051,-1.2052,-1.2052,0,-1.2716,-1.2669,-1.2626,-1.2552,-1.2535,-1.2511,-1.2453,-1.2418,-1.2358,-1.2327,-1.2286,-1.224,-1.2202,-1.2177,-1.2123,-1.2124,-1.2097,-1.2068,-1.2066,-1.2058,-1.2032,-1.2063,-1.2111,-1.2113,-1.2052,-1.2052,-1.2052,0,-1.2774,-1.2699,-1.2664,-1.2637,-1.2549,-1.2534,-1.2497,-1.2436,-1.2405,-1.2355,-1.2334,-1.2279,-1.2249,-1.2207,-1.2147,-1.2135,-1.2099,-1.2069,-1.2071,-1.2073,-1.2066,-1.2067,-1.2109,-1.205,-1.205,-1.205,-1.205,0,-1.28,-1.2777,-1.2689,-1.2667,-1.2639,-1.2574,-1.2547,-1.2504,-1.245,-1.2418,-1.2361,-1.2332,-1.2255,-1.2216,-1.2168,-1.2131,-1.2118,-1.209,-1.2078,-1.2095,-1.2099,-1.2076,-1.2073,-1.2051,-1.2051,-1.2051,-1.2051,0,-1.286,-1.28,-1.2758,-1.2679,-1.2659,-1.2641,-1.2573,-1.2549,-1.2502,-1.2462,-1.2449,-1.2375,-1.2326,-1.2263,-1.2193,-1.2161,-1.2129,-1.211,-1.215,-1.2143,-1.2148,-1.2148,-1.2176,-1.2176,-1.2119,-1.212,-1.2121,0,-1.288,-1.286,-1.278,-1.2755,-1.272,-1.2681,-1.2649,-1.2584,-1.2554,-1.2484,-1.2469,-1.2416,-1.2371,-1.2296,-1.2235,-1.2182,-1.216,-1.2174,-1.2152,-1.217,-1.2159,-1.2161,-1.2158,-1.2179,-1.218,-1.2181,-1.2181,0,-1.2921,-1.2893,-1.2851,-1.2799,-1.2763,-1.2719,-1.2671,-1.2654,-1.2578,-1.2547,-1.2497,-1.2462,-1.2393,-1.2341,-1.228,-1.2239,-1.2198,-1.2189,-1.2187,-1.2203,-1.2227,-1.2214,-1.2164,-1.2188,-1.2188,-1.2187,-1.2187,-1.2187,-1.2961,-1.2941,-1.2881,-1.2836,-1.2794,-1.2751,-1.2725,-1.2675,-1.2634,-1.2573,-1.2537,-1.2489,-1.2428,-1.2343,-1.2304,-1.2265,-1.2248,-1.2245,-1.2244,-1.2244,-1.2249,-1.2235,-1.2253,-1.2253,-1.2253,-1.2253,-1.2252,0,-1.2999,-1.2958,-1.2917,-1.2854,-1.2818,-1.2784,-1.2729,-1.2701,-1.266,-1.2608,-1.2565,-1.2508,-1.2458,-1.2394,-1.2339,-1.2319,-1.2299,-1.2307,-1.2307,-1.2299,-1.2267,-1.2275,-1.2325,-1.2325,-1.2325,-1.2325,-1.2325,-1.2325,-1.3015,-1.2979,-1.2944,-1.2886,-1.2844,-1.2798,-1.277,-1.273,-1.2688,-1.2628,-1.2587,-1.2546,-1.2488,-1.2429,-1.2381,-1.2363,-1.2345,-1.2359,-1.2335,-1.2307,-1.2301,-1.2295,-1.2301,-1.2356,-1.2356,-1.237,-1.237,-1.237]},{"header":{"parameterUnit":"m.s-1","parameterCategory":1,"la1":30.2991,"la2":30.254,"lo1":-89.0895,"lo2":-89.0444,"dy":0.0017,"dx":0.0017,"nx":28,"ny":28,"refTime":"2023-08-28T03:00:00:Z","depth":0,"parameterNumber":3,"parameterNumberName":"V-component_of_WINDS"},"data":[0,0,0,0,0,0,0,0,0,0,0,0,0,0,0,0,0,0,0,0,0,0,0,0,0,0,0,0,0,0,0,0,0,0,0,0,0,0,0,0,0,0,0,0,0,0,0,0,0,0,0,0,0,0,0,0,0,0,2.1875,2.1874,0,2.1794,2.1793,2.1792,2.1736,2.1735,2.1735,2.1735,2.1649,2.1647,2.1645,0,0,0,0,0,0,0,0,0,0,0,0,0,2.1976,2.1974,2.1875,2.1874,2.1873,2.1794,2.1793,2.1792,2.1736,2.1735,2.1735,2.1734,2.1649,2.1647,2.1645,0,0,0,0,0,0,0,0,0,0,0,0,0,2.1917,2.1974,2.1875,2.1835,2.1831,2.1795,2.1793,2.1792,2.1736,2.1735,2.1735,2.1734,2.165,2.1647,2.1644,2.164,0,0,2.1636,2.1634,0,0,0,0,0,0,0,0,2.1921,2.1914,2.1842,2.1838,2.1833,2.1774,2.1797,2.1741,2.1736,2.1772,2.1735,2.1734,2.1691,2.1684,2.1671,2.1636,2.1632,2.1635,2.1634,2.1632,2.1632,0,0,0,0,0,0,0,2.1925,2.1917,2.1843,2.1841,2.1836,2.182,2.1811,2.1786,2.1736,2.1769,2.1764,2.1756,2.1688,2.1674,2.1668,2.1631,2.1636,2.1633,2.1631,2.163,2.1588,2.1588,0,0,0,0,0,0,2.1936,2.1921,2.1845,2.184,2.1876,2.1819,2.1809,2.1794,2.1736,2.1727,2.1757,2.1754,2.1679,2.1672,2.1665,2.1656,2.1633,2.163,2.1628,2.1587,2.1588,2.1589,0,0,0,0,0,0,2.1938,2.1929,2.1849,2.1879,2.1868,2.1818,2.1802,2.1793,2.1778,2.1727,2.1717,2.1751,2.1678,2.1669,2.1647,2.1652,2.1629,2.1626,2.1587,2.1587,2.1588,2.1638,0,0,0,0,0,0,2.1941,2.1931,2.1929,2.188,2.1866,2.1833,2.1802,2.1792,2.1774,2.1769,2.1719,2.171,2.1677,2.1651,2.1644,2.1648,2.1624,2.1586,2.1587,2.1588,2.1635,2.164,2.1644,0,0,0,0,0,2.1945,2.1946,2.193,2.1921,2.1864,2.1833,2.1825,2.1788,2.1775,2.1772,2.1739,2.1712,2.1653,2.1649,2.1641,2.1644,2.1585,2.1587,2.1588,2.1633,2.1639,2.1644,0,0,0,0,0,0,2.1996,2.1938,2.192,2.1905,2.1875,2.1824,2.182,2.1795,2.1767,2.1764,2.1717,2.1706,2.1689,2.1664,2.1661,2.1636,2.1616,2.1615,2.1653,2.1658,2.1663,2.1669,2.1621,0,0,0,0,0,2.2006,2.1987,2.1937,2.1928,2.1914,2.187,2.1855,2.1829,2.1795,2.1782,2.1747,2.1714,2.1688,2.1672,2.1645,2.1631,2.1619,2.1629,2.1634,2.1637,2.1637,2.1628,2.1632,2.1593,2.1593,2.1593,0,0,2.2025,2.1991,2.1982,2.1938,2.1911,2.1892,2.1859,2.184,2.1825,2.1778,2.1755,2.1729,2.1689,2.1671,2.1662,2.165,2.1646,2.1639,2.1643,2.164,2.163,2.1634,2.1637,2.1594,2.1593,2.1593,0,0,2.205,2.2023,2.2013,2.1987,2.1948,2.1918,2.1916,2.1869,2.185,2.1827,2.1792,2.1772,2.1728,2.1701,2.1682,2.1697,2.1671,2.169,2.1713,2.1704,2.1707,2.171,2.1715,2.1717,2.169,2.169,2.169,0,2.2079,2.2049,2.201,2.1993,2.1975,2.1933,2.1922,2.1898,2.1852,2.1839,2.1827,2.1772,2.1742,2.1717,2.1721,2.1707,2.1702,2.1695,2.171,2.1712,2.1714,2.1718,2.172,2.1693,2.1692,2.1692,2.1692,0,2.2086,2.2066,2.2062,2.202,2.2001,2.1987,2.1945,2.193,2.1905,2.1877,2.1853,2.1816,2.1781,2.1773,2.1749,2.1745,2.1739,2.1719,2.1698,2.1721,2.1724,2.1725,2.1696,2.1695,2.1695,2.1694,0,0,2.2141,2.2078,2.2077,2.2057,2.2011,2.1994,2.1977,2.1944,2.1932,2.1901,2.1886,2.185,2.1832,2.181,2.1782,2.1774,2.1789,2.1755,2.1754,2.1762,2.1782,2.1797,2.1799,2.1771,2.1771,2.1771,2.1785,0,2.2158,2.2128,2.2093,2.2075,2.2055,2.2015,2.2001,2.197,2.1943,2.1922,2.1891,2.1867,2.1845,2.1831,2.1822,2.1789,2.1792,2.1787,2.1755,2.1755,2.1766,2.1801,2.1817,2.1831,2.1786,2.1786,2.1786,0,2.2175,2.2148,2.2128,2.2083,2.2074,2.2062,2.2029,2.2009,2.1973,2.1954,2.193,2.19,2.188,2.1861,2.1832,2.183,2.1815,2.1797,2.1796,2.1791,2.1772,2.1797,2.1835,2.1837,2.1788,2.1788,2.1788,0,2.2217,2.2175,2.2157,2.2141,2.2089,2.2082,2.2059,2.2023,2.2005,2.1976,2.1964,2.1932,2.1915,2.189,2.1852,2.1843,2.1827,2.1806,2.181,2.1811,2.1808,2.1809,2.1844,2.1799,2.1799,2.1799,2.1799,0,2.224,2.2229,2.2175,2.2165,2.2151,2.211,2.2097,2.2071,2.2039,2.2022,2.1985,2.197,2.1921,2.1899,2.1869,2.1849,2.1842,2.1825,2.1817,2.1828,2.183,2.1817,2.1815,2.1799,2.1799,2.1799,2.1799,0,2.2284,2.2247,2.2226,2.2179,2.2166,2.2158,2.2117,2.2105,2.2076,2.2054,2.2047,2.2001,2.1973,2.1934,2.1893,2.1873,2.1858,2.1845,2.187,2.1866,2.1872,2.1872,2.19,2.1901,2.1856,2.1857,2.1857,0,2.2301,2.2292,2.2244,2.2231,2.221,2.2188,2.217,2.213,2.2112,2.2071,2.2063,2.2033,2.2007,2.1965,2.1927,2.1896,2.1882,2.1894,2.1877,2.1889,2.1882,2.1883,2.1882,2.1898,2.1899,2.1899,2.19,0,2.2335,2.2318,2.2294,2.2265,2.2245,2.2219,2.2191,2.2182,2.2135,2.2117,2.2089,2.2069,2.2029,2.1999,2.1963,2.1938,2.1911,2.1906,2.1905,2.1916,2.1931,2.1922,2.1881,2.1905,2.1904,2.1904,2.1904,2.1904,2.2366,2.2356,2.2321,2.2296,2.2271,2.2246,2.2232,2.2202,2.2178,2.2143,2.212,2.2094,2.2057,2.2007,2.1984,2.1961,2.195,2.1949,2.1948,2.1949,2.1953,2.1935,2.1954,2.1954,2.1954,2.1954,2.1954,0,2.2398,2.2374,2.2351,2.2314,2.2294,2.2272,2.224,2.2224,2.2202,2.2171,2.2146,2.2114,2.2085,2.2046,2.2013,2.2003,2.199,2.1996,2.1996,2.1991,2.1965,2.1969,2.2007,2.2007,2.2007,2.2007,2.2007,2.2007,2.2412,2.2395,2.2373,2.2342,2.2317,2.2292,2.2275,2.2252,2.2227,2.2193,2.217,2.2145,2.211,2.2075,2.2047,2.2036,2.2026,2.2036,2.2021,2.1998,2.1993,2.1988,2.1991,2.2034,2.2034,2.2049,2.2049,2.2049]}]]